Home > Weather > Modesto > Past weeks

Flag for USA Weather for the Past 2 Weeks in Modesto, California, USA

Now
59 °F

Mostly cloudy.


Feels Like: 59 °F
Forecast: 58 / 69 °F
Wind: 5 mph from Northwest

Location: Modesto City-County-Sham Field

Current Time: May 6, 2016 at 3:01:30 AM

Latest Report: May 6, 2016 at 1:53 AM


Visibility: 10 mi

Pressure: 29.84 "Hg

Humidity: 78%

Dew Point: 52 °F

Location of ModestoLocation

Historic Weather in Modesto — Graph

°F

Modesto Temperature Yesterday

Maximum temperature yesterday: 70 °F (at 2:53 PM)
Minimum temperature yesterday: 58 °F (at 3:53 AM)
Average temperature yesterday: 63 °F

High & Low Weather Summary for the Past Weeks

 TemperatureHumidityPressure
High87 °F (May 1, 3:53 PM)87% (Apr 21, 5:53 AM)30.19 "Hg (Apr 21, 5:53 AM)
Low49 °F (Apr 23, 5:53 AM)16% (May 1, 5:53 PM)29.72 "Hg (Apr 30, 6:53 PM)
Average66 °F51%29.91 "Hg
* Reported Apr 21 1:53 AM — May 6 1:53 AM, Modesto, Weather by CustomWeather, © 2016

Note: Actual official high and low records may vary slightly from our data, if they occured in-between our weather recording intervals... More about our weather records

Advertising

Modesto Weather History for the Previous 24 Hours

Scroll right to see more
 ConditionsComfort  
Time TempWeatherWind HumidityBarometerVisibility
1:53 AM
Fri, May 6
59 °FMostly cloudy.5 mph78%29.84 "Hg10 mi
12:53 AM60 °FPassing clouds.9 mph75%29.83 "Hg10 mi
11:53 PM
Thu, May 5
60 °FClear.7 mph75%29.83 "Hg10 mi
10:53 PM61 °FPassing clouds.3 mph72%29.83 "Hg10 mi
9:53 PM62 °FOvercast.5 mph70%29.85 "Hg10 mi
8:53 PM63 °FScattered clouds.10 mph68%29.85 "Hg10 mi
7:53 PM64 °FOvercast.10 mph65%29.84 "Hg10 mi
6:53 PM65 °FOvercast.N/A61%29.83 "Hg10 mi
5:53 PM70 °FMostly cloudy.15 mph49%29.81 "Hg10 mi
4:53 PM70 °FMore clouds than sun.8 mph47%29.82 "Hg10 mi
3:53 PM69 °FMostly cloudy.8 mph51%29.83 "Hg10 mi
2:53 PM70 °FMostly cloudy.N/A47%29.83 "Hg10 mi
1:53 PM69 °FScattered clouds.3 mph49%29.84 "Hg10 mi
12:53 PM68 °FPartly sunny.5 mph51%29.85 "Hg10 mi
11:53 AM66 °FMostly cloudy.6 mph59%29.87 "Hg10 mi
10:53 AM63 °FMostly cloudy.3 mph63%29.86 "Hg10 mi
9:53 AM64 °FOvercast.N/A61%29.86 "Hg10 mi
8:53 AM62 °FOvercast.5 mph65%29.87 "Hg10 mi
7:53 AM60 °FBroken clouds.7 mph72%29.86 "Hg10 mi
6:53 AM58 °FClear.6 mph75%29.85 "Hg10 mi
5:53 AM58 °FPassing clouds.N/A75%29.84 "Hg10 mi
4:53 AM58 °FPassing clouds.6 mph75%29.83 "Hg10 mi
3:53 AM58 °FPassing clouds.6 mph75%29.83 "Hg10 mi
Weather by CustomWeather, © 2016

See weather overviewHow to use our weather pages